sat.trackr.live / text

‹ back to catalog

STARLINK-36533

NORAD 67643 · 2026-020AC

PAYLOAD ACTIVE UNKNOWN

§ Identity

Operator
Country
US
Launch date
2026-01-30
Launch site
AFETR
Launch vehicle
Mass (kg)
RCS (m²)

Purposes: comms

External: N2YO · Heavens-Above · Gunter

§ Orbital elements

Epoch: 2026-05-25T01:11:07.660608Z

Period
94.27 min
Inclination
43.0040°
Eccentricity
0.0001307
Mean motion
15.27597734 rev/d
Perigee alt
482.1 km
Apogee alt
483.9 km
Semi-major
6,861.1 km
B*
5.5371e-4
RAAN
68.3852°
Arg perigee
269.0554°
Mean anomaly
91.0148°
Rev number
1,779

§ Raw data

STARLINK-365331 67643U 26020AC  26145.04939422  .00015014  00000+0  55371-3 0  99912 67643  43.0040  68.3852 0001307 269.0554  91.0148 15.27597734 17790

JSON: /api/v1/satellites/67643 · /tle

For live sub-satellite position, see the globe view (requires WebGL).

§ Visibility from observer

Set your observer location to see the next 7 days of passes ≥ 10°. The values pass through the URL so the page stays shareable.

No JS? Fill the form by hand. The geolocation button needs JavaScript.